134P/Kowal-Vavrova (2014)

Japanese version
Home page
Updated on January 6, 2021

---------------------------------------------------------------------

* Profile

* Pictures

* Orbital Elements

Epoch 2014 May 23.0 TT = JDT 2456800.5
T 2014 May 21.49482 TT                                  MPC
q   2.5713321            (2000.0)            P               Q
n   0.06336331     Peri.   18.58418     -0.75842496     +0.65113461
a   6.2312828      Node   202.12064     -0.60717999     -0.72179458
e   0.5873511      Incl.    4.34878     -0.23690514     -0.23459817
P  15.6
From 902 observations 1983 May 8-2014 July 3, mean residual 0".6.
     Nongravitational parameters A1 = +3.52, A2 = +0.1405.

* Finding Charts

* Magnitudes Graph

        m1 = 4.5 + 5 log d + 20.0 log r

---------------------------------------------------------------------

The orbital elements are published on M.P.E.C. 2014-N57.
The charts are made with StellaNavigator Ver.8 (AstroArts).
The magnitudes graphs are made with Comet for Windows.

---------------------------------------------------------------------

Copyright(C) Seiichi Yoshida (comet@aerith.net). All rights reserved.